User: anonymous   Login
Location: Starry Hill Observatory
(46.8582°N, 122.3590°W)
Time: 11:36:51
(UTC-07:00)
Language:

Cosmos 1300 Rocket - Orbit

View from above orbital plane
View from above orbital plane
View from above satellite
View from above satellite

Ground track
Ground track

The orbit data is extracted from the following two-line orbital elements,

1 12786U 81082B   17207.82965975 +.00000080 +00000-0 +65778-5 0  9997
2 12786 082.4899 290.3405 0018923 121.6509 238.6555 14.84688935940694
Epoch (UTC): 26 July 2017 19:54:42
Eccentricity: 0.0018923
inclination: 82.4899°
perigee height: 601 km
apogee height: 628 km
right ascension of ascending node: 290.3405°
argument of perigee: 121.6509°
revolutions per day: 14.84688935
mean anomaly at epoch: 238.6555°
orbit number at epoch: 94069

The dashed part of the orbit path shows where the satellite is in the earth's shadow,  

DLR